Nationale SE - K Bis

Date : 25/04/2010

Place Nom Licence Catégorie Club Temps Points
1 HABERKORN Chloé 10396 D14 2105BF 0:29:32 3531
2 DROIN Solène 17925 D14 4201AR 0:30:06 3464
3 ROULLEAUX Julie 11559 D14 9105IF 0:31:25 3319
4 PICAZO Marie 16555 D14 8405PZ 0:31:52 3272
5 BODY Mathilde 10184 D14 7305AR 0:32:52 3173
6 PETER-JAN Lucile 19276 D14 3705CE 0:33:34 3106
7 DELENNE Camilla 13800 D14 1307PZ 0:37:14 2801
8 BISSIERE Camille 19486 D14 4709NA 0:37:18 2795
9 ELIAS Pauline 16137 D14 1307PZ 0:37:40 2768
10 BORNARD Julie 9402 D14 7305AR 0:40:03 2604
11 LAFARGE Emeline 17418 D14 7403AR 0:41:10 2533
12 VALETTE Marion 10430 D14 6913AR 0:44:20 2352
13 GIRARD Lucille 19689 D14 3705CE 0:45:54 2272
14 FOL Loreline 16393 D14 3105OC 0:46:08 2260
15 DEFIX Julia 19894 D14 4203AR 0:49:50 2092
16 JOURDAN Cindy 23286 D16 2606AR 0:51:47 2014
17 PORTE Louise 9143 D14 2105BF 0:53:25 1952
18 BESTEL Sandra 10758 D14 9105IF 0:54:37 1909
19 LUTHRINGER Coline 10091 D14 8809GE 0:54:38 1909
20 RIVOLLIER Isaline 22451 D14 4201AR 0:55:34 1877
21 MASSIN Margot 22860 D14 5907HF 0:56:08 1858
22 FALGA Beatrice 12403 D14 6911AR 0:56:18 1852
23 PHILIPPOT Nelly 23287 D16 2606AR 0:56:40 1840
24 PARENT Mathilde 22250 D14 6208HF 1:08:47 1516
25 LERAY Nelly 22762 D35 4802OC 1:15:39 1378
26 MEY Milena 19782 D21 7709IF 1:58:53 877
27 MOUTAULT Anais 12999 D14 3705CE 2:03:58 841